Location: Unspecified
(0.0000°N, 0.0000°E)
Time: 07:26:08
(UTC+00:00)

Transit 4A - Pass Details

Date: 20 December 2018
Orbit: 862 x 983 km, 66.8° (Epoch: 15 June)

Event Time Altitude Azimuth Distance (km) Brightness Sun altitude
Rises 12:05:46 0° 353° (N) 3,602 10.7 66.5°
Reaches altitude 10° 12:08:23 10° 359° (N) 2,675 10.2 66.4°
Maximum altitude 12:14:21 46° 71° (ENE) 1,282 9.2 66.2°
Drops below altitude 10° 12:20:25 10° 142° (SE) 2,731 10.7 65.9°
Sets 12:23:07 0° 148° (SSE) 3,684 11.3 65.8°
